Regional Weather Roundup
Issued by NWS

Home | Current Version | Previous Version | Graphics & Text | Print | Product List | Glossary Off
Versions: 1 2 3 4 5 6 7 8 9 10 11 12 13 14 15 16 17 18 19 20 21 22 23 24 25 26 27 28 29 30 31 32 33 34 35 36 37 38 39 40 41 42 43 44 45 46 47 48 49 50

000
ASUS43 KTOP 011508
RWRKS

WEATHER ROUNDUP FOR KANSAS
NATIONAL WEATHER SERVICE GOODLAND KS
1000 AM CDT FRI AUG 01 2014

NOTE:  "FAIR" INDICATES FEW OR NO CLOUDS BELOW 12,000 FEET WITH NO
SIGNIFICANT WEATHER AND/OR OBSTRUCTIONS TO VISIBILITY.

KSZ001>006-013>018-027>032-041>047-011600-
NORTHWEST KANSAS

CITY           SKY/WX    TMP DP  RH WIND       PRES   REMARKS
GOODLAND       MOSUNNY   75  57  53 NW7       30.20S
HAYS           SUNNY     77  61  57 N8        30.11R
HILL CITY      SUNNY     81  58  45 NE8       30.13R
RUSSELL        SUNNY     78  60  53 N9        30.08R
$$

KSZ061>065-074>080-084>089-011600-
SOUTHWEST KANSAS

CITY           SKY/WX    TMP DP  RH WIND       PRES   REMARKS
DODGE CITY     SUNNY     77  58  51 NW14      30.14R
ELKHART          N/A     74  58  57 W7          N/A
GARDEN CITY    SUNNY     74  57  55 NW12      30.17R
GREAT BEND       N/A     72  61  68 NW9       30.08S
LIBERAL        SUNNY     73  59  60 NW9       30.20R
PRATT          SUNNY     77  59  53 W10       30.10S
$$

KSZ066>073-081>083-090>101-011600-
SOUTHEAST KANSAS

CITY           SKY/WX    TMP DP  RH WIND       PRES   REMARKS
CHANUTE        SUNNY     73  68  84 SW3       30.10S
COFFEYVILLE    CLOUDY    69  67  93 CALM      30.10S FOG
HUTCHINSON     SUNNY     77  59  53 W12       30.07S
MEDICINE LODGE   N/A     76  60  57 W8        30.10S
NEWTON         SUNNY     75  57  53 SW9       30.11S
PARSONS        CLOUDY    69  67  93 S5        30.11S
WICHITA INTL   MOSUNNY   77  59  53 SW12      30.07S
WICHITA JABRA  SUNNY     78  61  55 SW9       30.07F
WICHITA MCCONL SUNNY     76  64  65 S9        30.08S
WINFIELD       SUNNY     76  69  79 SW5       30.10S
$$

KSZ007>012-019>026-033>040-048>060-102>105-011600-
NORTHEAST KANSAS

CITY           SKY/WX    TMP DP  RH WIND       PRES   REMARKS
CONCORDIA      SUNNY     75  62  64 N6        30.06R
EMPORIA        SUNNY     79  63  57 SW9       30.08S
LAWRENCE       PTSUNNY   74  63  68 E6        30.08S
MANHATTAN      SUNNY     77  59  53 SW12      30.04S
MARYSVILLE     SUNNY     75  59  57 S3        30.03S
OLATHE IND     CLOUDY    74  62  66 SE5       30.09F
OLATHE EXE     CLOUDY    73  63  70 VRB3      30.08F
SALINA         SUNNY     79  59  50 NW8       30.06R
TOPEKA BILLARD PTSUNNY   75  63  66 S5        30.07F
TOPEKA FORBES  PTSUNNY   76  62  62 SW6       30.07S
$$


USA.gov is the U.S. government's official web portal to all federal, state and local government web resources and services.